Regional Weather Roundup
Issued by NWS

Home | Current Version | Previous Version | Text Only | Print | Product List | Glossary Off
Versions: 1 2 3 4 5 6 7 8 9 10 11 12 13 14 15 16 17 18 19 20 21 22 23 24 25 26 27 28 29 30 31 32 33 34 35 36 37 38 39 40 41 42 43 44 45 46 47 48 49 50

000
ASUS43 KFSD 301802
RWRSD

WEATHER ROUNDUP FOR SOUTH DAKOTA
NATIONAL WEATHER SERVICE SIOUX FALLS SD
100 PM CDT SAT JUL 30 2016

NOTE: "FAIR" INDICATES FEW OR NO CLOUDS BELOW 12,000 FEET WITH NO
SIGNIFICANT WEATHER AND/OR OBSTRUCTIONS TO VISIBILITY.


SDZ001>005-009-010-012>017-301900-
NORTHWEST AND NORTH CENTRAL SOUTH DAKOTA

CITY           SKY/WX    TMP DP  RH WIND       PRES   REMARKS
BUFFALO          N/A     86  56  35 SE10      29.84F
FAITH            N/A     84  58  40 SE15G22   29.89F
MOBRIDGE       SUNNY     87  60  40 S17       29.87F
$$

SDZ012>016-024>037-041>051-057-063-072>074-301900-
SOUTHWEST AND SOUTH CENTRAL SOUTH DAKOTA

CITY           SKY/WX    TMP DP  RH WIND       PRES   REMARKS
RAPID CTY ARPT SUNNY     85  59  41 SE14      29.91F
PIERRE         SUNNY     86  62  44 SE18      29.88F
CUSTER         SUNNY     78  51  38 MISG      30.05F
ELLSWORTH AFB  SUNNY     86  59  39 S14G22    29.91F
PHILIP         SUNNY     85  62  46 S8G18     29.89F
PINE RIDGE     SUNNY     86  62  44 W9G21     29.94F
WINNER         FAIR      83  63  50 S10       29.94F
$$

SDZ004>011-016>023-039-040-301900-
NORTHEAST SOUTH DAKOTA

CITY           SKY/WX    TMP DP  RH WIND       PRES   REMARKS
ABERDEEN       SUNNY     81  58  45 S16G23    29.95F
WATERTOWN      SUNNY     78  59  51 SE10      30.00F
BROOKINGS      MOSUNNY   76  60  57 SE10      30.01F
SISSETON         N/A     79  58  48 S13       29.97F
$$

SDZ017-020-022-023-036>040-048>070-301900-
SOUTHEAST SOUTH DAKOTA

CITY           SKY/WX    TMP DP  RH WIND       PRES   REMARKS
SIOUX FALLS    MOSUNNY   78  59  51 CALM      30.01F
HURON          SUNNY     81  58  45 S10G21    29.95F
CHAMBERLAIN    SUNNY     84  64  50 S8G16     29.94F
MITCHELL       MOSUNNY   82  62  50 SE12G22   29.97F
YANKTON        PTSUNNY   79  61  53 SE12G18   29.98F
$$

ABBREVIATIONS USED IN REMARKS
   TC - TEMPERATURE IN CELSIUS
  WCI - WIND CHILL INDEX
   HX - HEAT INDEX
  VSB - VISIBILITY





USA.gov is the U.S. government's official web portal to all federal, state and local government web resources and services.